Location: Alsip
(41.6689°N, 87.7387°W)
Time: 15:21:58
(UTC+00:00)

Cosmos 1943 Rocket - Pass Details

Date: 14 July 2020
Orbit: 811 x 845 km, 71.0° (Epoch: 13 August)

Event Time Altitude Azimuth Distance (km) Brightness Sun altitude
Rises 03:07:44 0° 346° (NNW) 3,412 6.5 -15.6°
Reaches altitude 10° 03:10:47 10° 1° (N) 2,472 5.3 -16.0°
Maximum altitude 03:15:07 22° 51° (NE) 1,763 3.9 -16.5°
Enters shadow 03:18:24 14° 93° (E) 2,190 4.0 -16.9°
